STARLINK-1356, 45564

Orbit data source: Space-Track

STARLINK-1356, 45564 is a payload satellite owned by SpaceX/Seattle (US) in LEO that was launched on Wed, 22 Apr 2020 UTC via an FALCON 9 launch vehicle from the Air Force Eastern Test Range (AFETR). Payload-class satellites include a variety of spacecraft equipped with specific instruments for various scientific and technological missions. These include communications satellites like Starlink; space stations such as the ISS; scientific satellites like the Hubble; Earth observation satellites from companies like Planet Labs, Umbra, and HawkEye 360; GPS; miniature CubeSats for education and research; and military/defense satellites.

Loading next visibility...
Identifier
45564, 2020-025AK
Orbit
LEO
Last TLE update
1 day ago
Origin
Manufacturer
SpaceX/Seattle
Mission
Operational Commercial Communications
Bus & Motor
STARLINK, Unknown motor
Mass
260 kg wet, ~248 kg dry
Launch date (UTC)
2020-04-22 (5 years ago)
Launch vehicle
FALCON 9
Launch site
Air Force Eastern Test Range (AFETR)
Object type
Payload
Rocket body
Debris
Shape & HBR
Box + 1 Pan, 8.86 m
Radar Cross Section
13.562 m², Large (>1 m²)

Expand to show TLE details & history

TLE from 1 day ago
0 STARLINK-1356
1 45564U 20025AK  25181.15728864 -.00002322  00000-0 -13709-3 0  9995
2 45564  53.0536 140.2800 0001217  83.5092 276.6036 15.06392034287304
Epoch: 2025-06-30T03:46Z
TLE epoch observation values (Epoch: 2025-06-30T03:46:29.738Z)
Latitude
0.00002°
Longitude
165.18498°
Altitude
548.018 km
Speed
7.589 km/s
True Right ascension
09h 21m 07s
True Declination
0° 00' 00"
Sunlit
Object was in daylight at epoch
Visualization orbit readout
Latitude
51.22246°
Longitude
-89.15745°
Altitude
552.541 km
Speed
7.592 km/s
Apparent Right ascension
13h 01m 03s
Apparent Declination
11° 42' 25"
Sunlit
Object is in daylight
Visualization observer readout
Local Sidereal Time
22:07:34
Azimuth
312.324° NW
Elevation
-24.567°
Doppler factor
1
Orbital elements
Apogee altitude
548.35 km
Perigee altitude
546.664 km
Semi-major axis
6,925.644 km
Eccentricity
0.00012
Inclination
53.0536°
RAAN
140.28°
Arg. of periapsis
83.5092°
True anomaly
Unknown
Mean anomaly
276.6036°
Eccentric anomaly
Unknown
Mean motion
3.76576 °/min
Orbital period
95.6 mins
BSTAR
-0.00013709
Loading maneuver chart data...
Loading SW <> Apogee altitude chart data...
Loading historical data...
Loading historical data...
Loading historical data...
Loading historical data...
Loading historical data...
Loading historical data...
Loading historical data...

STARLINK-1356 Visibility forecast

Observer location: undefined°, undefined°

Span
Click to sort rows by Start time (UTC) header in descending order
Start Az.
Max El. time (UTC)
Max El. Az.
Max El.
End time (UTC)
End Az.
7 mins2025-07-01 22:55:07.292Z197.318° SSW2025-07-01 22:58:07.292Z147.323° SSE29.834°2025-07-01 23:02:07.292Z66.654° ENE
5 mins2025-07-02 00:36:07.292Z279.37° WNW2025-07-02 00:38:07.292Z331.607° NNW30.01°2025-07-02 00:41:07.292Z31.996° NE
6 mins2025-07-02 05:37:07.292Z328.432° NNW2025-07-02 05:40:07.292Z41.377° NE32.6°2025-07-02 05:43:07.292Z99.441° ESE
5 mins2025-07-02 07:17:07.292Z277.441° WNW2025-07-02 07:19:07.292Z234.615° WSW26.584°2025-07-02 07:22:07.292Z173.557° S
|